モーリー-アタール彗星

C/2021 X1 ( Maury-Attard )

English version
Home page
Updated on May 24, 2022

---------------------------------------------------------------------

・ プロフィール

発見日 2021年12月2日
発見光度 19.0等
発見者 Alain Maury and Georges Attard (Maury, Attard, Parrott (MAP) survey project)

・ 写真集

・ 軌道要素

Epoch 2022 Jan. 21.0 TT = JDT 2459600.5
T 2023 May 27.35779 TT                                  Rudenko
q   3.2345106            (2000.0)            P               Q
z  -0.0000712      Peri.  334.59210     +0.82747634     +0.54902403
 +/-0.0000083      Node    10.57869     +0.55852909     -0.78326965
e   1.0002303      Incl.  140.12094     -0.05769023     +0.29165264
From 512 observations 2021 Oct. 22-2022 May 2, mean residual 0".3.

・ 星図

・ 光度変化

        m1 = 7.0 + 5 logΔ + 10.0 log r

---------------------------------------------------------------------

軌道要素はM.P.E.C. 2022-J42に掲載されたものです。
星図はステラナビゲータ Ver.10 (アストロアーツ) で作成したものです。
光度グラフはComet for Windowsで作成したものです。

---------------------------------------------------------------------

Copyright(C) Seiichi Yoshida (comet@aerith.net). All rights reserved.